User: anonymous   Login
Location: Caltech
(34.1382°N, 118.1253°W)
Time: 19:51:07
(UTC-08:00)
Language:

NOSS 3-4 (C) - Orbit

View from above orbital plane
View from above orbital plane
View from above satellite
View from above satellite

Ground track
Ground track

The orbit data is extracted from the following two-line orbital elements,

1 31708U 07027C   16034.80834176 0.00000000  00000-0  00000-0 0    09
2 31708  63.4060 276.4313 0151000  28.3450 331.6550 13.40699473    04
Epoch (UTC): 03 February 2016 19:24:00
Eccentricity: 0.0151000
inclination: 63.4060°
perigee height: 993 km
apogee height: 1219 km
right ascension of ascending node: 276.4313°
argument of perigee: 28.3450°
revolutions per day: 13.40699473
mean anomaly at epoch: 331.6550°
orbit number at epoch: 0

The dashed part of the orbit path shows where the satellite is in the earth's shadow,  

DLR